{"data":{"norad_id":62932,"intl_designator":"2025-028E","name":"KINEIS-2A","alt_names":[],"object_type":"PAYLOAD","status":"ACTIVE","operator":null,"country":"FR","launch_date":"2025-02-08","launch_site_code":"RLLB","launch_vehicle":null,"mission":null,"orbit_class":"UNKNOWN","rcs_meters":null,"size_class":null,"mass_kg":null,"dimensions":null,"purposes":[],"wikipedia_slug":null,"has_3d_model":false,"image_url":null,"decayed_at":null,"tle_current":{"epoch":"2026-05-25T03:21:56.894976Z","epoch_age_seconds":60040,"freshness":"FRESH","line1":"1 62932U 25028E   26145.14024184  .00001172  00000+0  18905-3 0  9997","line2":"2 62932  98.1311 200.4763 0003500 226.0928 133.9990 14.73312382 69212","mean_motion":14.73312382,"eccentricity":0.00035,"inclination_deg":98.1311,"raan_deg":200.4763,"arg_perigee_deg":226.0928,"mean_anomaly_deg":133.999,"bstar":0.00018905,"rev_number":6921,"period_min":97.738946444285,"perigee_km":648.05347680969,"apogee_km":652.97353216283,"semimajor_km":7028.6505044863,"source":"CELESTRAK","updated_at":"2026-05-25T13:38:03.363861Z"}}}